Weather History for Rickenbacker, OH

Change the Weather History Date:

Wednesday, January 2, 2013

  Actual Average Record
Temperature  
Mean Temperature 18 °F -  
Max Temperature 25 °F 38 °F 66 °F (2000)
Min Temperature 11 °F 25 °F 8 °F (2002)
Degree Days  
Heating Degree Days 47    
Moisture  
Dew Point 12 °F    
Average Humidity 76    
Maximum Humidity 87    
Minimum Humidity 57    
Precipitation  
Precipitation 0.00 in - - ()
Sea Level Pressure  
Sea Level Pressure 30.19 in    
Wind  
Wind Speed 1 mph (SW)    
Max Wind Speed 5 mph    
Max Gust Speed -    
Visibility 8 miles    
Events      
Averages and records for this station are not official NWS values.
T = Trace of Precipitation, MM = Missing Value Source: NWS Daily Summary

Daily Weather History Graph

Daily Weather History Graph

Search for Another Location

Airport:

Trip Planner

Search our weather history database for the weather conditions in past years. The results will help you decide how hot, cold, wet, or windy it might be!

Date:

Astronomy

Jan. 02, 2013 Rise Set
Actual Time 7:53 AM EST 5:18 PM EST
Civil Twilight 7:22 AM EST 5:49 PM EST
Nautical Twilight 6:49 AM EST 6:22 PM EST
Astronomical Twilight 6:16 AM EST 6:55 PM EST
Moon 10:49 PM EST (1/2) 10:35 AM EST (1/2)
Length of Visible Light 10h 26m
Length of Day
9h 25m
Waning Gibbous, 75% of the Moon is Illuminated
Jan 2
Waning Gibbous
Jan 4
Last Quarter
Jan 11
New
Jan 18
First Quarter
Jan 26
Full

Hourly Weather History & Observations

Time (EST) Temp. Windchill Dew Point Humidity Pressure Visibility Wind Dir Wind Speed Gust Speed Precip Events Conditions
12:15 AM 21.9 °F - 13.5 °F 70% 30.13 in 10.0 mi Calm Calm - N/A   Clear
12:35 AM 19.8 °F - 13.5 °F 77% 30.12 in 10.0 mi Calm Calm - N/A   Clear
12:55 AM 19.6 °F - 13.8 °F 78% 30.13 in 10.0 mi Calm Calm - N/A   Clear
1:15 AM 19.9 °F - 13.8 °F 77% 30.12 in 10.0 mi Calm Calm - N/A   Clear
1:35 AM 18.5 °F 11.7 °F 13.3 °F 80% 30.13 in 10.0 mi WSW 4.6 mph - N/A   Clear
1:55 AM 18.0 °F 12.7 °F 12.9 °F 81% 30.13 in 10.0 mi SW 3.5 mph - N/A   Clear
2:15 AM 17.6 °F - 12.7 °F 81% 30.12 in 10.0 mi Calm Calm - N/A   Clear
2:35 AM 17.8 °F 12.5 °F 12.7 °F 81% 30.13 in 10.0 mi SSW 3.5 mph - N/A   Clear
2:55 AM 18.1 °F - 12.6 °F 79% 30.13 in 10.0 mi Calm Calm - N/A   Mostly Cloudy
3:15 AM 16.7 °F - 12.4 °F 83% 30.13 in 10.0 mi Calm Calm - N/A   Scattered Clouds
3:35 AM 16.7 °F - 12.7 °F 84% 30.13 in 10.0 mi Calm Calm - N/A   Clear
3:55 AM 16.9 °F - 12.9 °F 84% 30.15 in 10.0 mi Calm Calm - N/A   Clear
4:15 AM 17.4 °F - 12.9 °F 83% 30.14 in 10.0 mi Calm Calm - N/A   Clear
4:35 AM 16.7 °F - 12.7 °F 84% 30.15 in 7.0 mi Calm Calm - N/A   Clear
4:55 AM 16.5 °F - 12.7 °F 85% 30.14 in 10.0 mi Calm Calm - N/A   Clear
5:15 AM 15.3 °F 9.6 °F 11.7 °F 86% 30.15 in 5.0 mi South 3.5 mph - N/A   Clear
5:35 AM 14.5 °F - 11.3 °F 87% 30.15 in 7.0 mi Calm Calm - N/A   Clear
5:55 AM 15.3 °F 9.6 °F 11.8 °F 86% 30.16 in 7.0 mi SW 3.5 mph - N/A   Clear
6:15 AM 15.8 °F - 11.8 °F 84% 30.15 in 10.0 mi Calm Calm - N/A   Clear
6:35 AM 14.7 °F - 10.9 °F 85% 30.16 in 5.0 mi Calm Calm - N/A   Clear
6:55 AM 13.6 °F - 10.0 °F 86% 30.16 in 5.0 mi Calm Calm - N/A   Clear
7:15 AM 12.7 °F - 9.1 °F 86% 30.16 in 4.0 mi Calm Calm - N/A   Clear
7:35 AM 12.7 °F - 9.1 °F 86% 30.17 in 4.0 mi Calm Calm - N/A   Clear
7:55 AM 12.0 °F - 8.2 °F 85% 30.18 in 4.0 mi Calm Calm - N/A   Clear
8:15 AM 11.3 °F - 7.3 °F 84% 30.17 in 4.0 mi Calm Calm - N/A   Clear
8:35 AM 11.8 °F 5.7 °F 8.1 °F 85% 30.18 in 5.0 mi SSW 3.5 mph - N/A   Clear
8:55 AM 11.8 °F 5.7 °F 7.9 °F 84% 30.19 in 5.0 mi South 3.5 mph - N/A   Clear
9:15 AM 11.8 °F - 7.9 °F 84% 30.20 in 5.0 mi Calm Calm - N/A   Clear
9:35 AM 13.1 °F - 9.1 °F 84% 30.21 in 7.0 mi Calm Calm - N/A   Clear
10:15 AM 14.5 °F 7.1 °F 10.6 °F 84% 30.23 in 5.0 mi SW 4.6 mph - N/A   Mostly Cloudy
10:35 AM 15.4 °F 9.8 °F 11.5 °F 84% 30.23 in 5.0 mi SW 3.5 mph - N/A   Overcast
10:55 AM 16.5 °F 9.4 °F 12.7 °F 85% 30.24 in 4.0 mi SW 4.6 mph - N/A   Overcast
11:15 AM 17.1 °F - 13.1 °F 84% 30.24 in 5.0 mi Calm Calm - N/A   Overcast
11:35 AM 17.4 °F 10.4 °F 13.3 °F 84% 30.24 in 7.0 mi SSW 4.6 mph - N/A   Mostly Cloudy
11:55 AM 18.3 °F 11.5 °F 13.3 °F 81% 30.24 in 7.0 mi SSW 4.6 mph - N/A   Scattered Clouds
12:15 PM 19.6 °F 13.0 °F 12.7 °F 75% 30.23 in 10.0 mi SSW 4.6 mph - N/A   Clear
12:35 PM 20.7 °F 15.8 °F 12.7 °F 71% 30.22 in 7.0 mi SSW 3.5 mph - N/A   Clear
12:55 PM 21.9 °F 17.2 °F 12.7 °F 68% 30.22 in 7.0 mi SSW 3.5 mph - N/A   Clear
1:15 PM 22.5 °F - 12.9 °F 67% 30.21 in 10.0 mi Calm Calm - N/A   Clear
1:35 PM 22.3 °F - 12.9 °F 67% 30.21 in 7.0 mi Calm Calm - N/A   Clear
1:55 PM 22.5 °F - 12.7 °F 66% 30.21 in 10.0 mi Calm Calm - N/A   Clear
2:15 PM 23.5 °F - 12.7 °F 63% 30.20 in 10.0 mi Calm Calm - N/A   Clear
2:35 PM 25.0 °F 20.7 °F 12.4 °F 59% 30.20 in 10.0 mi SW 3.5 mph - N/A   Clear
2:55 PM 25.7 °F 20.1 °F 12.2 °F 57% 30.20 in 10.0 mi SW 4.6 mph - N/A   Clear
3:15 PM 25.7 °F 21.5 °F 12.9 °F 58% 30.20 in 10.0 mi SW 3.5 mph - N/A   Clear
3:35 PM 25.5 °F 19.9 °F 12.7 °F 58% 30.21 in 10.0 mi WSW 4.6 mph - N/A   Clear
3:55 PM 25.5 °F 19.9 °F 12.0 °F 57% 30.21 in 10.0 mi SW 4.6 mph - N/A   Clear
4:15 PM 24.4 °F 18.6 °F 11.7 °F 58% 30.21 in 10.0 mi WSW 4.6 mph - N/A   Clear
4:35 PM 23.7 °F 19.3 °F 11.5 °F 60% 30.21 in 10.0 mi WSW 3.5 mph - N/A   Clear
4:55 PM 23.5 °F 19.1 °F 11.3 °F 60% 30.20 in 10.0 mi WSW 3.5 mph - N/A   Clear
5:15 PM 23.4 °F - 11.1 °F 60% 30.21 in 10.0 mi Calm Calm - N/A   Clear
5:35 PM 22.6 °F 18.0 °F 10.9 °F 61% 30.20 in 10.0 mi WSW 3.5 mph - N/A   Clear
5:55 PM 22.6 °F - 10.8 °F 60% 30.20 in 10.0 mi Calm Calm - N/A   Clear
6:15 PM 21.2 °F - 10.9 °F 65% 30.21 in 10.0 mi Calm Calm - N/A   Clear
6:35 PM 21.2 °F - 10.9 °F 65% 30.21 in 10.0 mi Calm Calm - N/A   Clear
6:55 PM 20.8 °F - 10.9 °F 66% 30.22 in 10.0 mi Calm Calm - N/A   Clear
7:15 PM 20.7 °F - 10.9 °F 66% 30.22 in 10.0 mi Calm Calm - N/A   Clear
7:35 PM 19.6 °F - 11.1 °F 70% 30.22 in 10.0 mi Calm Calm - N/A   Clear
7:55 PM 19.2 °F - 11.3 °F 71% 30.22 in 10.0 mi Calm Calm - N/A   Clear
8:15 PM 18.7 °F - 10.9 °F 72% 30.22 in 10.0 mi Calm Calm - N/A   Clear
8:55 PM 18.5 °F - 11.8 °F 75% 30.23 in 10.0 mi Calm Calm - N/A   Clear
9:15 PM 18.3 °F - 11.7 °F 75% 30.23 in 10.0 mi Calm Calm - N/A   Clear
9:35 PM 18.0 °F - 11.1 °F 75% 30.24 in 10.0 mi Calm Calm - N/A   Clear
9:55 PM 18.0 °F - 10.6 °F 73% 30.24 in 10.0 mi Calm Calm - N/A   Clear
10:15 PM 16.2 °F - 10.9 °F 80% 30.23 in 10.0 mi Calm Calm - N/A   Clear
10:35 PM 15.4 °F 9.8 °F 10.9 °F 82% 30.22 in 10.0 mi SSE 3.5 mph - N/A   Clear
10:55 PM 14.9 °F 9.2 °F 10.4 °F 82% 30.22 in 7.0 mi SSE 3.5 mph - N/A   Clear
11:15 PM 15.1 °F 7.7 °F 10.6 °F 82% 30.21 in 7.0 mi SSE 4.6 mph - N/A   Clear
11:35 PM 15.1 °F - 10.8 °F 83% 30.21 in 7.0 mi Calm Calm - N/A   Clear
11:55 PM 15.8 °F - 11.3 °F 82% 30.21 in 10.0 mi Calm Calm - N/A   Clear